Hourly Data Report for February 11, 2018

MIRAMICHI RCS
NEW BRUNSWICK

47°00'34.000" N
65°27'54.000" W
33.00 m
8100989
71744
ACQ

Download Data

Hourly Data (February 2018)
Hourly Data Report for February 11, 2018
TIME
LST
Temp Definition
°C
Dew Point Definition
°C
Rel Hum Definition
%
Precip. Amount Definition
mm

Wind Dir Definition
10's deg

Wind Spd Definition
km/h
Visibility Definition
km
Stn Press Definition
kPa
Hmdx Definition


Wind Chill Definition


Weather Definition


00:00 -4.0 -4.8 94 1.0 18 3   101.62   -5 LegendNANA
01:00 -3.9 -4.7 94 1.1 0 1   101.63   -4 LegendNANA
02:00 -3.9 -4.7 94 1.0   0   101.65     LegendNANA
03:00 -3.8 -4.6 94 1.1   0   101.69     LegendNANA
04:00 -3.8 -4.7 94 0.6   0   101.69     LegendNANA
05:00 -3.9 -4.8 94 0.0   0   101.73     LegendNANA
06:00 -3.9 -4.8 93 0.0   0   101.77     LegendNANA
07:00 -3.9 -4.9 93 0.0   0   101.83     LegendNANA
08:00 -3.9 -5.1 92 0.0   0   101.95     LegendNANA
09:00 -4.0 -5.3 91 0.0   0   101.99     LegendNANA
10:00 -4.6 -6.1 89 0.0 4 13   102.04   -10 LegendNANA
11:00 -4.2 -5.9 88 0.0 6 19   102.08   -10 LegendNANA
12:00 -4.3 -7.2 80 0.0 6 20   102.06   -11 LegendNANA
13:00 -4.3 -7.4 79 0.0 6 22   102.07   -11 LegendNANA
14:00 -4.4 -7.9 76 0.0 5 18   102.07   -10 LegendNANA
15:00 -4.6 -7.8 78 0.0 7 20   102.02   -11 LegendNANA
16:00 -5.0 -9.2 72 0.0 7 21   102.03   -12 LegendNANA
17:00 -5.4 -9.0 76 0.0 7 17   101.98   -11 LegendNANA
18:00 -5.9 -8.2 83 0.0 7 15   101.91   -12 LegendNANA
19:00 -5.9 -8.3 83 0.0 8 15   101.83   -12 LegendNANA
20:00 -6.2 -9.3 79 0.0 8 20   101.68   -13 LegendNANA
21:00 -6.3 -8.9 82 0.0 8 18   101.49   -13 LegendNANA
22:00 -6.2 -9.0 81 0.0 9 19   101.31   -13 LegendNANA
23:00 -6.5 -8.0 89 0.0 7 13   101.02   -12 LegendNANA

Notes on Data Quality.

Legend

  • E = Estimated
  • M = Missing
  • NA = Not Available*
  • [empty] = Indicates an unobserved value
Date modified: